Meteo orario Aliabad

Oggi, 25 Ottobre, Domenica

Tempo Temperatura Precipitazioni Vento Pressione Umidità
00:00 +15°C° 0 mm 0 m/s 742 mm Hg 55%
01:00 +15°C° 0 mm 0 m/s 742 mm Hg 55%
02:00 +15°C° 0 mm 0 m/s 742 mm Hg 54%
03:00 +15°C° 0 mm 0 m/s 742 mm Hg 54%
04:00 +14°C° 0 mm 0 m/s 741 mm Hg 55%
05:00 +14°C° 0 mm 0 m/s 741 mm Hg 56%
06:00 +14°C° 0 mm 0 m/s 741 mm Hg 56%
07:00 +16°C° 0 mm 0 m/s 741 mm Hg 51%
08:00 +20°C° 0 mm 1 m/s 741 mm Hg 45%
09:00 +22°C° 0 mm 1 m/s 742 mm Hg 40%
10:00 +24°C° 0 mm 1 m/s 741 mm Hg 37%
11:00 +25°C° 0 mm 1 m/s 741 mm Hg 34%
12:00 +27°C° 0 mm 1 m/s 740 mm Hg 31%
13:00 +27°C° 0 mm 1 m/s 740 mm Hg 31%
14:00 +27°C° 0 mm 1 m/s 740 mm Hg 30%
15:00 +28°C° 0 mm 1 m/s 740 mm Hg 29%
16:00 +26°C° 0 mm 1 m/s 740 mm Hg 34%
17:00 +23°C° 0 mm 1 m/s 740 mm Hg 39%
18:00 +21°C° 0 mm 1 m/s 740 mm Hg 43%
19:00 +21°C° 0 mm 1 m/s 740 mm Hg 43%
20:00 +21°C° 0 mm 1 m/s 741 mm Hg 43%
21:00 +20°C° 0 mm 1 m/s 741 mm Hg 43%
22:00 +20°C° 0 mm 1 m/s 741 mm Hg 44%
23:00 +20°C° 0 mm 1 m/s 741 mm Hg 44%

Domani, 26 Ottobre, Lunedi

Tempo Temperatura Precipitazioni Vento Pressione Umidità
00:00 +17°C° 0 mm 0 m/s 741 mm Hg 44%
01:00 +17°C° 0 mm 0 m/s 741 mm Hg 45%
02:00 +17°C° 0 mm 0 m/s 742 mm Hg 46%
03:00 +16°C° 0 mm 0 m/s 742 mm Hg 47%
04:00 +16°C° 0 mm 0 m/s 742 mm Hg 47%
05:00 +16°C° 0 mm 0 m/s 742 mm Hg 47%
06:00 +15°C° 0 mm 0 m/s 742 mm Hg 47%
07:00 +17°C° 0 mm 0 m/s 742 mm Hg 44%
08:00 +19°C° 0 mm 0 m/s 743 mm Hg 41%
09:00 +22°C° 0 mm 1 m/s 743 mm Hg 38%
10:00 +24°C° 0 mm 1 m/s 743 mm Hg 37%
11:00 +25°C° 0 mm 1 m/s 742 mm Hg 36%
12:00 +26°C° 0 mm 1 m/s 742 mm Hg 36%
13:00 +26°C° 0 mm 1 m/s 742 mm Hg 35%
14:00 +26°C° 0 mm 1 m/s 742 mm Hg 35%
15:00 +26°C° 0 mm 1 m/s 742 mm Hg 34%
16:00 +24°C° 0 mm 1 m/s 742 mm Hg 40%
17:00 +22°C° 0 mm 1 m/s 742 mm Hg 46%
18:00 +20°C° 0 mm 1 m/s 742 mm Hg 51%
19:00 +20°C° 0 mm 1 m/s 742 mm Hg 52%
20:00 +19°C° 0 mm 1 m/s 743 mm Hg 53%
21:00 +19°C° 0 mm 1 m/s 743 mm Hg 54%
22:00 +18°C° 0 mm 1 m/s 743 mm Hg 55%
23:00 +18°C° 0 mm 1 m/s 742 mm Hg 56%

Dopodomani, 27 Ottobre, Martedi

Tempo Temperatura Precipitazioni Vento Pressione Umidità
00:00 +18°C° 0 mm 1 m/s 742 mm Hg 57%
01:00 +16°C° 0 mm 1 m/s 742 mm Hg 58%
02:00 +16°C° 0 mm 1 m/s 742 mm Hg 58%
03:00 +16°C° 0 mm 1 m/s 742 mm Hg 59%
04:00 +15°C° 0 mm 1 m/s 742 mm Hg 59%
05:00 +14°C° 0 mm 0 m/s 742 mm Hg 59%
06:00 +14°C° 0 mm 0 m/s 742 mm Hg 59%
07:00 +18°C° 0 mm 1 m/s 742 mm Hg 54%
08:00 +19°C° 0 mm 1 m/s 743 mm Hg 50%
09:00 +21°C° 0 mm 1 m/s 743 mm Hg 45%
10:00 +21°C° 0 mm 2 m/s 743 mm Hg 43%
11:00 +23°C° 0 mm 2 m/s 743 mm Hg 42%
12:00 +24°C° 0 mm 3 m/s 743 mm Hg 40%
13:00 +25°C° 0 mm 3 m/s 743 mm Hg 39%
14:00 +25°C° 0 mm 3 m/s 743 mm Hg 39%
15:00 +25°C° 0 mm 3 m/s 743 mm Hg 39%
16:00 +23°C° 0 mm 2 m/s 743 mm Hg 45%
17:00 +20°C° 0 mm 2 m/s 743 mm Hg 51%
18:00 +19°C° 0 mm 1 m/s 744 mm Hg 57%
19:00 +18°C° 0 mm 2 m/s 744 mm Hg 59%
20:00 +17°C° 0 mm 2 m/s 744 mm Hg 60%
21:00 +17°C° 0 mm 2 m/s 745 mm Hg 62%
22:00 +16°C° 0 mm 2 m/s 745 mm Hg 66%
23:00 +15°C° 0 mm 1 m/s 745 mm Hg 71%

28 Ottobre, Mercoledi

Tempo Temperatura Precipitazioni Vento Pressione Umidità
00:00 +14°C° 0 mm 1 m/s 745 mm Hg 75%
01:00 +14°C° 0 mm 1 m/s 745 mm Hg 77%
02:00 +14°C° 0 mm 1 m/s 745 mm Hg 78%
03:00 +12°C° 0 mm 0 m/s 745 mm Hg 80%
04:00 +12°C° 0 mm 0 m/s 745 mm Hg 81%
05:00 +12°C° 0 mm 0 m/s 746 mm Hg 82%
06:00 +12°C° 0 mm 0 m/s 746 mm Hg 83%
07:00 +14°C° 0 mm 1 m/s 746 mm Hg 76%
08:00 +16°C° 0 mm 1 m/s 746 mm Hg 70%
09:00 +17°C° 0 mm 2 m/s 746 mm Hg 63%
10:00 +18°C° 0 mm 2 m/s 746 mm Hg 61%
11:00 +19°C° 0 mm 2 m/s 746 mm Hg 58%
12:00 +19°C° 0 mm 2 m/s 746 mm Hg 56%
13:00 +20°C° 0 mm 2 m/s 746 mm Hg 54%
14:00 +20°C° 0 mm 2 m/s 746 mm Hg 53%
15:00 +20°C° 0 mm 2 m/s 746 mm Hg 52%
16:00 +20°C° 0 mm 1 m/s 746 mm Hg 57%
17:00 +18°C° 0 mm 1 m/s 746 mm Hg 62%
18:00 +16°C° 0 mm 1 m/s 746 mm Hg 66%
19:00 +15°C° 0 mm 1 m/s 746 mm Hg 68%
20:00 +15°C° 0 mm 1 m/s 747 mm Hg 69%
21:00 +13°C° 0 mm 0 m/s 747 mm Hg 71%
22:00 +14°C° 0 mm 1 m/s 747 mm Hg 71%
23:00 +14°C° 0 mm 1 m/s 747 mm Hg 72%

29 Ottobre, Giovedi

Tempo Temperatura Precipitazioni Vento Pressione Umidità
00:00 +14°C° 0 mm 1 m/s 747 mm Hg 72%
01:00 +13°C° 0 mm 1 m/s 746 mm Hg 73%
02:00 +13°C° 0 mm 1 m/s 746 mm Hg 73%
03:00 +12°C° 0 mm 0 m/s 746 mm Hg 73%
04:00 +12°C° 0 mm 0 m/s 746 mm Hg 74%
05:00 +11°C° 0 mm 0 m/s 746 mm Hg 74%
06:00 +11°C° 0 mm 0 m/s 746 mm Hg 74%
07:00 +13°C° 0 mm 0 m/s 746 mm Hg 68%
08:00 +15°C° 0 mm 1 m/s 746 mm Hg 62%
09:00 +18°C° 0 mm 1 m/s 746 mm Hg 56%
10:00 +19°C° 0 mm 1 m/s 745 mm Hg 54%
11:00 +20°C° 0 mm 1 m/s 745 mm Hg 51%
12:00 +21°C° 0 mm 1 m/s 745 mm Hg 48%
13:00 +21°C° 0 mm 1 m/s 745 mm Hg 47%
14:00 +21°C° 0 mm 1 m/s 744 mm Hg 47%
15:00 +22°C° 0 mm 1 m/s 744 mm Hg 46%
16:00 +20°C° 0 mm 1 m/s 744 mm Hg 52%
17:00 +18°C° 0 mm 1 m/s 744 mm Hg 58%
18:00 +15°C° 0 mm 1 m/s 744 mm Hg 64%
19:00 +15°C° 0 mm 1 m/s 745 mm Hg 65%
20:00 +14°C° 0 mm 0 m/s 745 mm Hg 66%
21:00 +13°C° 0 mm 0 m/s 745 mm Hg 67%
22:00 +13°C° 0 mm 0 m/s 745 mm Hg 68%
23:00 +13°C° 0 mm 0 m/s 744 mm Hg 68%

30 Ottobre, Venerdi

Tempo Temperatura Precipitazioni Vento Pressione Umidità
00:00 +13°C° 0 mm 0 m/s 744 mm Hg 69%
01:00 +12°C° 0 mm 0 m/s 744 mm Hg 70%
02:00 +12°C° 0 mm 0 m/s 744 mm Hg 70%
03:00 +13°C° 0 mm 1 m/s 744 mm Hg 71%
04:00 +12°C° 0 mm 0 m/s 744 mm Hg 72%
05:00 +11°C° 0 mm 0 m/s 743 mm Hg 73%
06:00 +11°C° 0 mm 0 m/s 743 mm Hg 75%
07:00 +13°C° 0 mm 0 m/s 743 mm Hg 67%
08:00 +15°C° 0 mm 0 m/s 743 mm Hg 60%
09:00 +19°C° 0 mm 1 m/s 743 mm Hg 53%
10:00 +20°C° 0 mm 1 m/s 743 mm Hg 49%
11:00 +22°C° 0 mm 1 m/s 742 mm Hg 46%
12:00 +23°C° 0 mm 1 m/s 742 mm Hg 42%
13:00 +23°C° 0 mm 1 m/s 742 mm Hg 41%
14:00 +24°C° 0 mm 1 m/s 741 mm Hg 41%
15:00 +24°C° 0 mm 1 m/s 741 mm Hg 40%
16:00 +22°C° 0 mm 1 m/s 741 mm Hg 45%
17:00 +20°C° 0 mm 1 m/s 742 mm Hg 50%
18:00 +16°C° 0 mm 0 m/s 742 mm Hg 55%
19:00 +16°C° 0 mm 0 m/s 742 mm Hg 56%
20:00 +16°C° 0 mm 0 m/s 742 mm Hg 57%
21:00 +15°C° 0 mm 0 m/s 742 mm Hg 58%
22:00 +15°C° 0 mm 0 m/s 742 mm Hg 58%
23:00 +15°C° 0 mm 0 m/s 742 mm Hg 59%
Mostrare altro

Abbiamo bisogno del tuo consenso

Meteoprog e i nostri fornitori di servizi possono memorizzare e accedere a dati personali come cookie, identificatori di dispositivi o altre tecnologie simili sul tuo dispositivo e possono elaborare tali dati per personalizzare i contenuti e gli annunci, nonché fornire funzionalità dei social media e analizzarne il traffico.

  • Archiviare e/o accedere alle informazioni sul tuo dispositivo

    Cookie, identificatori di dispositivi o altre informazioni possono essere memorizzati o resi accessibili sul tuo dispositivo per le finalità sopra indicate.

  • Annunci e contenuti personalizzati, misurazione di annunci e contenuti, approfondimenti sul pubblico e sviluppo di prodotti

    Gli annunci e i contenuti possono essere personalizzati in base a un profilo. È possibile aggiungere più dati per personalizzare meglio annunci e contenuti. È possibile misurare il rendimento degli annunci e dei contenuti. È possibile ricavare informazioni sul pubblico che ha visto gli annunci e i contenuti. Tali dati possono essere utilizzati per sviluppare o migliorare l'esperienza, i sistemi e il software dell'utente.

Cliccando su “Accetto”, acconsenti all'uso di cookie, identificatori di dispositivo, web beacon o altre tecnologie simili. Puoi modificare le impostazioni nel browser del tuo dispositivo.

Per determinati scopi, è possibile fare affidamento su interessi legali, piuttosto che sul consenso. Puoi approfondire questo argomento consultando la nostra Informativa sulla privacy e sui cookie.